Zurück zum Katalog

STARLINK-34561

AktivKommunikationVLEO
NORAD 65081·PAYLOAD·🇺🇸 United States

Gestartet Aug 4, 2025 von Cape Canaveral Space Force Station

Loading…

Nächste Überflüge (nächste 24 Stunden)

TLE

AktuellSource: CelesTrak SupGP

Epoche: Sep 14, 2026, 22:43 UTC

1 65081C 25167D   26257.94701389  .00013680  00000+0  40409-3 0  2578
2 65081  53.1584 223.9448 0001390  92.5269  59.0971 15.34391049    17

Verfolge STARLINK-34561 in Echtzeit mit AllMySat

Download on the App Store